This demonstration page uses our WeatherBlox Daily Observations layout. Learn more.

Left ArrowRight Arrow

Hourly Observations for April 3, 2019

Temp ( °F °C ) Dew Point ( °F °C ) Humidity (%) Winds ( mph kmh ) Pressure ( in mb ) Visibility ( mi km ) Precip ( " mm )
12:15 am 00:15 Cloudy 48 8.9 35 1.5 60 60 SSE 9 15 30.06 1018 10 16 N/A
12:35 am 00:35 Cloudy 48 9 34 1.3 59 59 S 9 15 30.06 1018 10 16 N/A
12:55 am 00:55 Cloudy 48 8.7 34 1.1 59 59 S 10 17 30.07 1018 10 16 N/A
1:15 am 01:15 Cloudy 47 8.2 34 1.2 62 62 S 8 13 30.07 1018 10 16 N/A
1:35 am 01:35 Mostly Cloudy 45 7.1 34 1 65 65 S 8 13 30.09 1019 10 16 N/A
1:55 am 01:55 Clear 44 6.7 34 1 67 67 S 8 13 30.09 1019 10 16 N/A
2:15 am 02:15 Partly Cloudy 43 6.3 34 1 69 69 S 7 11 30.10 1019 10 16 N/A
2:35 am 02:35 Partly Cloudy 43 6.3 34 1.2 70 70 S 7 11 30.10 1019 10 16 N/A
2:55 am 02:55 Cloudy 45 7.1 34 1 65 65 SSE 5 7 30.08 1019 10 16 N/A
3:15 am 03:15 Cloudy 45 7.4 34 0.9 64 64 SSE 7 11 30.08 1018 10 16 N/A
3:35 am 03:35 Cloudy 45 7.1 34 1.1 66 66 SE 3 6 30.07 1018 10 16 N/A
3:55 am 03:55 Cloudy 45 7 34 1.1 66 66 SE 5 7 30.07 1018 10 16 N/A
4:15 am 04:15 Cloudy 45 7 34 1.1 66 66 ESE 5 7 30.06 1018 10 16 N/A
4:35 am 04:35 Cloudy 44 6.7 35 1.4 69 69 SE 5 7 30.06 1018 10 16 N/A
4:55 am 04:55 Cloudy 44 6.7 34 1.2 68 68 N N/A 30.07 1018 10 16 N/A
5:15 am 05:15 Mostly Cloudy 42 5.5 36 2 78 78 E 3 6 30.07 1018 10 16 N/A
5:35 am 05:35 Cloudy 42 5.5 36 2.2 80 80 E 3 6 30.07 1018 10 16 N/A
5:55 am 05:55 Cloudy 42 5.5 36 2.3 80 80 ESE 6 9 30.06 1018 10 16 N/A
6:15 am 06:15 Cloudy 43 6 36 2.1 76 76 ESE 6 9 30.05 1018 10 16 N/A
6:35 am 06:35 Cloudy 43 6.3 36 2 74 74 ESE 7 11 30.05 1017 10 16 N/A
6:55 am 06:55 Cloudy 43 6.2 36 2 75 75 ESE 8 13 30.04 1017 10 16 N/A
7:15 am 07:15 Cloudy 43 6 35 1.9 75 75 E 8 13 30.03 1017 10 16 N/A
7:35 am 07:35 Mostly Cloudy 42 5.8 35 1.8 76 76 E 7 11 30.04 1017 10 16 N/A
7:55 am 07:55 Cloudy 43 6.1 35 1.8 74 74 E 8 13 30.04 1017 10 16 N/A
8:15 am 08:15 Cloudy with Drizzle 43 6.1 35 1.8 74 74 ESE 5 7 30.06 1018 10 16 N/A
8:35 am 08:35 Cloudy 44 6.5 35 1.8 72 72 E 6 9 30.05 1018 7 11 N/A
8:55 am 08:55 Cloudy 45 7 35 1.6 69 69 E 8 13 30.05 1018 7 11 N/A
9:15 am 09:15 Mostly Cloudy 46 7.5 35 1.7 67 67 E 14 22 30.03 1017 7 11 N/A
9:35 am 09:35 Mostly Cloudy 46 7.5 35 1.7 67 67 ESE 14 22 30.02 1017 10 16 N/A
9:55 am 09:55 Cloudy 46 7.6 36 2 68 68 E 13 20 30.01 1016 10 16 N/A
10:15 am 10:15 Cloudy with Light Rain 45 7 37 2.6 74 74 E 14 22 30.02 1017 7 11 N/A
10:35 am 10:35 Cloudy 46 8 38 3.2 72 72 ESE 14 22 30.00 1016 10 16 N/A
10:55 am 10:55 Partly Cloudy 49 9.4 38 3.6 67 67 E 13 20 29.99 1015 10 16 N/A
11:15 am 11:15 Partly Cloudy 51 10.3 39 4.1 66 66 ESE 14 22 29.99 1016 10 16 N/A
11:35 am 11:35 Partly Cloudy 50 9.9 39 3.7 66 66 ESE 10 17 29.99 1016 10 16 N/A
11:55 am 11:55 Partly Cloudy 51 10.7 39 4 64 64 ESE 10 17 29.98 1015 10 16 N/A
12:15 pm 12:15 Mostly Cloudy 52 10.9 40 4.2 64 64 ESE 14 22 29.97 1015 10 16 N/A
12:35 pm 12:35 Mostly Cloudy 52 11.2 40 4.3 63 63 ESE 13 20 29.96 1015 10 16 N/A
12:55 pm 12:55 Cloudy 53 11.6 40 4.6 62 62 SE 7 11 29.96 1014 10 16 N/A
1:15 pm 13:15 Cloudy 53 11.9 40 4.4 60 60 E 15 24 29.94 1014 10 16 N/A
1:35 pm 13:35 Cloudy 54 12.4 40 4.5 59 59 SE 9 15 29.92 1013 10 16 N/A
1:55 pm 13:55 Cloudy 55 13 41 5.1 59 59 SE 14 22 29.90 1013 10 16 N/A
2:15 pm 14:15 Cloudy 56 13.6 42 5.3 58 58 ESE 9 15 29.90 1012 10 16 N/A
2:35 pm 14:35 Cloudy 56 13.4 41 4.8 56 56 ESE 9 15 29.89 1012 10 16 N/A
2:55 pm 14:55 Cloudy 56 13.5 42 5.4 58 58 E 12 19 29.89 1012 10 16 N/A
3:15 pm 15:15 Cloudy 57 13.8 42 5.3 57 57 ESE 13 20 29.89 1012 10 16 N/A
3:35 pm 15:35 Cloudy 56 13.5 42 5.5 59 59 ESE 9 15 29.89 1012 10 16 N/A
3:55 pm 15:55 Mostly Cloudy 58 14.3 42 5.8 57 57 E 14 22 29.87 1012 10 16 N/A
4:15 pm 16:15 Mostly Cloudy 57 13.9 42 5.7 58 58 E 14 22 29.88 1012 10 16 N/A
4:35 pm 16:35 Cloudy 57 13.7 42 5.8 59 59 E 15 24 29.88 1012 10 16 N/A
4:55 pm 16:55 Mostly Cloudy 56 13.1 42 5.8 61 61 E 17 28 29.88 1012 10 16 N/A
5:15 pm 17:15 Cloudy 55 12.6 43 5.9 64 64 E 14 22 29.90 1012 10 16 N/A
5:35 pm 17:35 Cloudy 55 12.5 43 5.9 64 64 E 16 26 29.90 1012 10 16 N/A
5:55 pm 17:55 Cloudy 54 12 43 6.2 68 68 ENE 18 30 29.90 1013 10 16 N/A
6:15 pm 18:15 Cloudy 54 12.2 44 6.5 68 68 ENE 17 28 29.90 1013 10 16 N/A
6:35 pm 18:35 Partly Cloudy 55 12.6 44 6.4 66 66 E 15 24 29.91 1013 10 16 N/A
6:55 pm 18:55 Mostly Cloudy 54 12.3 43 6.3 67 67 E 15 24 29.92 1013 10 16 N/A
7:15 pm 19:15 Cloudy 53 11.7 43 6.1 69 69 E 17 28 29.93 1013 10 16 N/A
7:35 pm 19:35 Cloudy 52 11 43 6 72 72 E 16 26 29.94 1014 10 16 N/A
7:55 pm 19:55 Cloudy 50 10 43 6 76 76 ENE 15 24 29.95 1014 10 16 N/A
8:15 pm 20:15 Partly Cloudy 48 9.1 42 5.7 79 79 ENE 14 22 29.97 1015 10 16 N/A
8:35 pm 20:35 Partly Cloudy 47 8.6 42 5.4 81 81 E 14 22 29.97 1015 10 16 N/A
8:55 pm 20:55 Partly Cloudy 46 7.8 42 5.5 86 86 ENE 14 22 30.00 1016 10 16 N/A
9:15 pm 21:15 Cloudy 46 8 42 5.8 86 86 ENE 15 24 30.01 1016 10 16 N/A
9:35 pm 21:35 Cloudy 46 7.5 42 5.6 88 88 ENE 16 26 30.02 1017 7 11 N/A
9:55 pm 21:55 Cloudy with Mist and Fog 45 7 42 5.3 89 89 ENE 14 22 30.04 1017 5 8 N/A
10:15 pm 22:15 Cloudy 44 6.9 41 5.2 89 89 ENE 13 20 30.05 1018 7 11 N/A
10:35 pm 22:35 Cloudy 44 6.8 41 5.1 89 89 ENE 14 22 30.05 1018 7 11 N/A
10:55 pm 22:55 Cloudy 44 6.7 41 5 89 89 ENE 13 20 30.05 1018 7 11 N/A
11:15 pm 23:15 Cloudy 44 6.5 40 4.6 88 88 ENE 16 26 30.05 1018 7 11 N/A
11:35 pm 23:35 Cloudy 43 6.3 40 4.5 88 88 ENE 15 24 30.06 1018 7 11 N/A
11:55 pm 23:55 Cloudy 43 6.3 40 4.6 89 89 NE 15 24 30.06 1018 7 11 N/A

Powered by AerisWeather